Regional Weather Roundup
Issued by NWS Burlington, VT

Current Version | Previous Version | Graphics & Text | Print | Product List | Glossary Off
Versions: 1 2 3 4 5 6 7 8 9 10 11 12 13 14 15 16 17 18 19 20 21 22 23 24 25 26 27 28 29 30 31 32 33 34 35 36 37 38 39 40 41 42 43 44 45 46 47 48 49 50

000
ASUS41 KBTV 242010
RWRBTV
VERMONT REGIONAL WEATHER ROUNDUP
NATIONAL WEATHER SERVICE BURLINGTON VT
400 PM EDT SAT JUN 24 2017

NOTE: "FAIR" INDICATES FEW OR NO CLOUDS BELOW 12,000 FEET WITH NO
SIGNIFICANT WEATHER AND/OR OBSTRUCTIONS TO VISIBILITY.

* THESE REPORTS ARE NOT UNDER NWS QUALITY CONTROL AND/OR DO NOT
  REPORT WEATHER SUCH AS PRECIPITATION AND FOG.

VTZ001>019-242100-
_____VERMONT_____


CITY           SKY/WX    TMP DP  RH WIND       PRES   REMARKS
BURLINGTON     MOSUNNY   82  55  39 SW8       29.64S
MONTPELIER     PTSUNNY   73  56  54 NW12      29.71S
MORRISVILLE    PTSUNNY   75  53  46 VRB6      29.67S
ST. JOHNSBURY*   N/A     79  56  45 MISG      29.63S
LYNDONVILLE*   FAIR      76  54  45 W9G17     29.69R
MIDDLEBURY*    FAIR      79  56  44 CALM      29.67S
RUTLAND*       MOSUNNY   79  55  43 NW12      29.69R
SPRINGFIELD    MOSUNNY   80  52  37 NW12      29.68R
HIGHGATE*      PTSUNNY   80  62  54 CALM      29.64R
NEWPORT*       FAIR      75  57  53 W9        29.67R
BENNINGTON     MOSUNNY   77  57  50 SW16G25   29.73R
SUTTON*          N/A     73 N/A N/A MISG        N/A

_____LAKE CHAMPLAIN_____


CITY           SKY/WX    TMP DP  RH WIND       PRES   REMARKS
BURTON ISLAND*   N/A     75  63  64 E2          N/A
COLCHESTER RF*   N/A     75  61  60 S6          N/A
DIAMOND ISL*     N/A     81  48  32 W10G21      N/A

$$

NYZ007-026>031-035-052-083-087-242100-
_____NORTHERN NEW YORK_____


CITY           SKY/WX    TMP DP  RH WIND       PRES   REMARKS
PLATTSBURGH    CLOUDY    80  52  37 W9        29.63S
SARANAC LAKE   MOSUNNY   74  56  53 W9G24     29.71R
MASSENA        PTSUNNY   77  53  43 SW15G25   29.66R
OGDENSBURG*    FAIR      76  58  53 SW12G18   29.68R
POTSDAM*       PTSUNNY   75  57  53 W22G28    29.69R
WATERTOWN      SUNNY     72  58  61 SW16G24   29.75R
FT DRUM        SUNNY     74  55  51 W13G21    29.75R
ALBANY         MOSUNNY   80  52  37 W21G32    29.74R
GLENS FALLS    MOSUNNY   80  50  34 W15G26    29.69R

$$
NHZ002-005-011-242100-
_____NEW HAMPSHIRE_____


CITY           SKY/WX    TMP DP  RH WIND       PRES   REMARKS
LEBANON        MOSUNNY   83  53  35 NW13G21   29.65R
KEENE          MOSUNNY   83  57  41 NW10      29.68R
MT WASHINGTON  FOG       48  48 100 W36G46      N/A  VSB 0
PLYMOUTH       FAIR      80  53  38 W6        29.64R
WHITEFIELD     PTSUNNY   78  58  49 NW12G17   29.66R

$$

_____REGIONAL QUEBEC LOCATIONS_____


CITY           SKY/WX    TMP DP  RH WIND       PRES   REMARKS
MONTREAL       MOSUNNY   73  59  60 SW12      29.61S
QUEBEC CITY    PTSUNNY   73  57  56 W12       29.55R
SHERBROOKE     MOSUNNY   75  57  53 W13G22    29.62S

_____REGIONAL ONTARIO LOCATIONS_____


CITY           SKY/WX    TMP DP  RH WIND       PRES   REMARKS
OTTAWA         MOSUNNY   81  50  34 W17G26    29.66R

______KEY______
VSB  - VISIBILITY IN MILES
WCI  - WIND CHILL INDEX
HX   - HEAT INDEX
$$
NNNN




USA.gov is the U.S. government's official web portal to all federal, state and local government web resources and services.